Regional Weather Roundup
Issued by NWS

Home | Current Version | Previous Version | Graphics & Text | Print | Product List | Glossary On
Versions: 1 2 3 4 5 6 7 8 9 10 11 12 13 14 15 16 17 18 19 20 21 22 23 24 25 26 27 28 29 30 31 32 33 34 35 36 37 38 39 40 41 42 43 44 45 46 47 48 49 50
000
ASUS43 KLOT 210308
RWRIL

ILLINOIS REGIONAL WEATHER ROUNDUP
NATIONAL WEATHER SERVICE CHICAGO/ROMEOVILLE IL
1000 PM CDT MON APR 20 2015

NOTE: "FAIR" INDICATES FEW OR NO CLOUDS BELOW 12,000 FEET WITH NO
SIGNIFICANT WEATHER AND/OR OBSTRUCTIONS TO VISIBILITY.

* THESE STATIONS ARE NOT UNDER NWS QUALITY CONTROL. THEY ALSO MAY NOT
  REPORT WEATHER SUCH AS PRECIPITATION OR FOG.

ILZ001-002-007-009-015-016-024-210400-
NORTHWEST ILLINOIS

CITY           SKY/WX    TMP DP  RH WIND       PRES   REMARKS
MOLINE         CLEAR     39  34  82 CALM      29.68R
STERLING*      CLOUDY    43  36  75 SW8       29.67R
SAVANNA*       CLOUDY    46  32  59 W12       29.65S
$$

ILZ003-004-008-010-011-017-018-210400-
NORTH CENTRAL ILLINOIS

CITY           SKY/WX    TMP DP  RH WIND       PRES   REMARKS
ROCKFORD       PTCLDY    43  30  60 W12       29.64R
FREEPORT*      MOCLDY    40  32  72 W9        29.64R
ROCHELLE*      CLOUDY    39  36  88 SW10      29.64S WCI  32
DE KALB*       PTCLDY    39  33  80 W13G20    29.63R WCI  31
PERU*          PTCLDY    41  34  75 W9        29.68S
$$

ILZ005-006-012>014-019>023-210400-
NORTHEAST ILLINOIS

CITY           SKY/WX    TMP DP  RH WIND       PRES   REMARKS
CHICAGO-OHARE  PTCLDY    43  31  62 W12       29.61R
CHICAGO-MIDWAY MOCLDY    47  32  56 SW12      29.63R
AURORA         PTCLDY    42  34  73 SW14      29.64S
LANSING*       CLOUDY    45  32  61 W12G24    29.66R
JOLIET*        MOCLDY    45  36  69 W12G20    29.66S
WAUKEGAN       CLOUDY    43  31  62 W9G18     29.58R
DUPAGE AIRPORT PTCLDY    42  34  73 SW15      29.62R
KANKAKEE*      CLOUDY    43  37  80 SW10      29.70R
WHEELING       MOCLDY    43  30  60 SW7       29.61R
MORRIS*        MOCLDY    43  35  73 W12       29.64S
ROMEOVILLE*    PTCLDY    42  35  76 W13       29.65S
NORTHERLY ISL    N/A     46  30  54 SW8         N/A
$$

LMZ740>746-210400-
SOUTHERN LAKE MICHIGAN

STATION/POSITION SKY/WX   TEMP    WIND        PRES    VSBY  WAVE
                          AIR SEA DIR/SP/G                  HT/PER
                          (F)     (DEG/KT/KT) (MB)    (MI)  (FT/S)
HARRISON CRIB              46     260/ 19/ 23   N/A
BURNHAM HARBOR             46     200/  5/ 15   N/A
CALUMET HARBOR             45     240/  8/ 15   N/A
BURNS HARBOR               47     260/ 20/ 26 1004.1R
MICHIGAN CITY              45     230/ 27/ 32   N/A
MICHIGAN CITY 6N           45 45  270/ 14/ 21   N/A           5/ 5
$$

ILZ025>027-034>036-040-047-049-050-058-095>099-210400-
WEST-CENTRAL ILLINOIS

CITY           SKY/WX    TMP DP  RH WIND       PRES   REMARKS
QUINCY         CLEAR     44  29  55 SW8       29.76S
GALESBURG*     CLEAR     40  31  71 SW9       29.69S
MACOMB*        CLEAR     43  32  65 SW12      29.74F
JACKSONVILLE*  PTCLDY    47  35  62 SW8       29.77S
PITTSFIELD*    CLEAR     47  31  55 SW6       29.79S
$$

ILZ028>032-037-038-041>044-048-051>054-059>061-210400-
CENTRAL ILLINOIS

CITY           SKY/WX    TMP DP  RH WIND       PRES   REMARKS
PONTIAC        CLOUDY    44  39  80 SW6       29.70F
BLOOMINGTON    PTCLDY    46  36  68 SW12      29.73R
DECATUR        PTCLDY    44  35  70 SW7       29.77R
PEORIA         PTCLDY    44  32  62 SW9       29.71S
LACON*         PTCLDY    40  34  80 SW3       29.69S
LINCOLN*       MOCLDY    47  35  63 SW5       29.74S
SPRINGFIELD    CLEAR     46  35  65 SW8       29.77S
TAYLORVILLE    PTCLDY    45  34  65 SW9       29.79R
$$

ILZ033-039-045-046-055>057-062-063-210400-
EAST-CENTRAL ILLINOIS

CITY           SKY/WX    TMP DP  RH WIND       PRES   REMARKS
CHAMPAIGN      MOCLDY    45  36  70 SW14      29.75R
DANVILLE*      MOCLDY    45  36  71 W10G17    29.72R
RANTOUL*       PTCLDY    45  38  77 SW12      29.73S
MATTOON        PTCLDY    45  36  70 SW6       29.78R
PARIS*         CLOUDY    46  40  81 SW9       29.79R
$$

ILZ079-100>102-210400-
SOUTHWEST ILLINOIS

CITY           SKY/WX    TMP DP  RH WIND       PRES   REMARKS
ALTON          PTCLDY    48  32  53 W8        29.83S
BELLEVILLE     CLEAR     48  35  59 SW3       29.84R
CAHOKIA*       FAIR      51  33  50 SW3       29.85R
SPARTA*        PTCLDY    49  34  56 SW6       29.87R
$$

ILZ064>066-069>071-074>076-080>082-084>086-088>090-092>094-210400-
SOUTH-CENTRAL ILLINOIS

CITY           SKY/WX    TMP DP  RH WIND       PRES   REMARKS
CARBONDALE     CLEAR     49  36  61 SW6       29.87R
CAIRO*         PTCLDY    53  40  61 NW3       29.89R
EFFINGHAM*     PTCLDY    46  33  61 S6        29.83R
MARION         CLEAR     48  39  71 CALM      29.88R
MT. VERNON     PTCLDY    45  36  70 CALM      29.86R
CENTRALIA*     MOCLDY    45  37  74 SW6       29.84R
SALEM*         MOCLDY    48  37  66 SW5       29.84R
METROPOLIS*    PTCLDY    53  39  59 CALM      29.88R
$$

ILZ067-068-072-073-078-083-087-091-210400-
SOUTHEAST ILLINOIS

CITY           SKY/WX    TMP DP  RH WIND       PRES   REMARKS
LAWRENCEVILLE  CLOUDY    49  37  63 SW6       29.83R
FLORA*         PTCLDY    44  37  75 SW6       29.84R
FAIRFIELD*     PTCLDY    47  37  68 CALM      29.84R
HARRISBURG*    CLEAR     48  37  64 W3        29.88R
ROBINSON*      CLOUDY    49  37  63 SW8       29.83R
CARMI*         PTCLDY    46  36  68 SW3       29.86R
$$

ABBREVIATIONS USED IN REMARKS
   TC - TEMPERATURE IN CELSIUS
  WCI - WIND CHILL INDEX
   HX - HEAT INDEX
  VSB - VISIBILITY
$$




USA.gov is the U.S. government's official web portal to all federal, state and local government web resources and services.